CAPE
347 255 357 190 10 3 1 0 0 0 0 0 0 191 503 88 101 275 558 558 640 662 622 642 835 823 800 800 851 928 462 527 734
334 114 453 195 10 6 1 0 0 0 0 0 0 107 266 22 22 131 322 399 597 607 593 567 558 488 591 813 627 288 424 435 564
289 324 274 151 7 2 0 0 0 0 0 0 0 5 91 10 18 40 219 417 418 478 578 545 518 489 554 598 399 60 92 207 353
332 323 251 108 1 0 0 0 0 0 0 0 0 7 52 6 38 23 33 258 110 268 408 390 363 381 499 499 389 52 34 24 53
318 294 194 31 1 0 0 0 0 0 0 0 0 0 34 6 12 13 23 27 13 29 57 97 125 188 248 295 415 417 371 109 110
68 110 163 12 0 0 0 0 0 0 0 0 0 15 3 4 5 13 40 20 17 17 15 18 22 27 87 134 134 124 174 152 98
34 14 133 0 0 0 0 0 0 0 0 0 0 0 4 1 5 11 32 8 8 6 3 3 3 6 10 18 24 33 38 43 67
2 0 25 1 0 0 0 0 0 0 0 1 2 2 3 0 1 12 22 4 6 6 0 0 1 2 3 3 3 6 9 15 26
4 0 12 1 0 0 0 0 0 0 0 0 0 0 0 0 0 14 32 11 7 3 0 1 0 0 0 0 0 0 0 0 2
0 0 1 0 0 0 0 0 0 0 0 0 0 0 0 0 0 0 23 17 4 3 1 0 0 0 0 0 0 0 0 0 0
0 0 0 0 0 0 0 0 0 0 0 0 0 0 0 0 0 0 0 9 3 0 0 0 0 0 0 0 0 0 0 0 0
0 0 0 0 0 0 0 0 0 0 0 0 0 0 0 0 0 0 0 0 0 0 0 0 0 0 0 0 0 0 0 0 0
0 0 0 0 0 0 0 0 0 0 0 0 0 0 0 0 0 0 0 0 0 0 0 0 0 0 0 0 0 0 0 0 0
0 0 0 0 0 0 0 0 0 0 0 0 0 0 0 0 0 0 0 0 0 0 0 0 0 0 0 0 0 0 0 0 0
0 0 0 0 0 0 0 0 0 0 0 0 0 0 0 0 0 0 0 0 0 0 0 0 0 0 0 0 0 0 0 0 0
0 0 0 0 0 0 0 0 0 0 0 0 0 0 0 0 0 0 0 0 0 0 0 0 0 0 0 0 0 0 0 0 0
0 0 0 0 0 0 0 0 0 0 0 0 0 0 0 0 0 0 0 0 0 0 0 0 0 0 0 0 0 0 0 0 0
0 0 0 0 0 0 0 0 0 0 0 0 0 0 0 0 0 0 0 0 0 0 0 0 0 0 0 0 0 0 0 0 0
0 0 0 0 0 0 0 0 0 0 0 0 0 0 0 0 0 0 0 0 0 0 0 0 0 0 0 0 0 0 0 0 0
0 0 0 0 0 0 0 0 0 0 0 0 0 0 0 0 0 0 0 0 0 0 0 0 0 0 0 0 0 0 0 0 0
CIN
-34 -51 -27 -79 -5 0 0 0 0 0 0 0 0 -123 -12 -190 -184 -59 -11 -2 0 0 0 0 0 0 0 0 0 0 0 0 0
-33 -107 -24 -100 0 0 0 0 0 0 0 0 0 -31 -87 -2 -7 -128 -59 -27 -1 -1 0 0 0 -4 0 0 0 -3 0 0 0
-48 -36 -47 -109 0 0 0 0 0 0 0 0 0 -10 -46 -1 -1 0 -98 -22 -17 -5 0 0 -1 0 -2 0 -6 -118 -72 -11 0
-36 -41 -46 -123 0 0 0 0 0 0 0 0 0 -7 -26 0 0 0 0 -79 -159 -65 -10 -8 -9 -7 0 0 -8 -109 -99 -35 -95
-24 -50 -79 0 0 0 0 0 0 0 0 0 0 0 -6 0 0 0 -1 -2 -1 0 -196 -123 -90 -48 -25 -16 -6 -10 -10 -55 -45
-124 -104 -100 0 0 0 0 0 0 0 0 0 0 -44 0 -1 0 0 0 0 0 0 0 0 0 0 -57 -38 -67 -71 -51 -59 -88
-2 -2 -93 0 0 0 0 0 0 0 0 0 -3 0 0 0 0 0 0 0 0 0 0 0 0 0 0 0 0 0 0 -17 -102
-1 0 0 0 0 0 0 0 0 0 0 0 0 -1 0 0 0 0 0 0 0 0 0 0 0 0 0 0 0 0 0 0 0
0 0 0 0 0 0 0 0 0 0 0 0 0 0 0 0 0 0 0 0 0 0 0 0 0 0 0 0 0 0 0 0 0
0 0 -1 0 0 0 0 0 0 0 0 0 0 0 0 0 0 0 -1 0 0 0 0 0 0 0 0 0 0 0 0 0 0
0 0 0 0 0 0 0 0 0 0 0 0 0 0 0 0 0 0 0 -2 0 0 0 0 0 0 0 0 0 0 0 0 0
0 0 0 0 0 0 0 0 0 0 0 0 0 0 0 0 0 0 0 0 0 0 0 0 0 0 0 0 0 0 0 0 0
0 0 0 0 0 0 0 0 0 0 0 0 0 0 0 0 0 0 0 0 0 0 0 0 0 0 0 0 0 0 0 0 0
0 0 0 0 0 0 0 0 0 0 0 0 0 0 0 0 0 0 0 0 0 0 0 0 0 0 0 0 0 0 0 0 0
0 0 0 0 0 0 0 0 0 0 0 0 0 0 0 0 0 0 0 0 0 0 0 0 0 0 0 0 0 0 0 0 0
0 0 0 0 0 0 0 0 0 0 0 0 0 0 0 0 0 0 0 0 0 0 0 0 0 0 0 0 0 0 0 0 0
0 0 0 0 0 0 0 0 0 0 0 0 0 0 0 0 0 0 0 0 0 0 0 0 0 0 0 0 0 0 0 0 0
0 0 0 0 0 0 0 0 0 0 0 0 0 0 0 0 0 0 0 0 0 0 0 0 0 0 0 0 0 0 0 0 0
0 0 0 0 0 0 0 0 0 0 0 0 0 0 0 0 0 0 0 0 0 0 0 0 0 0 0 0 0 0 0 0 0
0 0 0 0 0 0 0 0 0 0 0 -1 0 0 0 0 0 0 0 0 0 0 0 0 0 0 0 0 0 0 0 0 0
Wind_Speed
13 14 15 17 16 15 15 15 15 15 15 14 13 15 20 16 14 13 17 15 22 23 22 21 22 23 22 22 23 25 25 25 25
13 13 16 16 15 15 15 15 15 15 14 13 12 13 16 11 12 13 13 15 23 23 23 22 23 23 22 23 23 25 26 26 25
14 12 15 16 15 14 14 15 15 14 15 13 11 11 6 13 13 13 12 19 22 25 25 25 24 24 23 22 24 25 24 25 25
14 14 13 16 14 13 13 14 14 15 14 13 11 11 15 13 12 13 9 18 21 22 23 24 24 25 26 25 24 23 24 24 24
12 14 13 15 14 13 13 13 14 14 12 10 6 2 12 12 12 10 9 18 19 21 22 23 23 23 24 25 26 26 25 24 24
11 14 12 14 13 12 13 14 14 14 8 2 4 8 7 11 9 8 16 19 20 21 21 22 22 23 25 24 25 25 25 25 25
12 12 13 14 13 12 13 12 13 12 7 4 6 7 11 10 10 8 15 19 20 21 21 22 23 23 23 23 23 24 24 25 26
7 7 8 8 10 7 8 6 5 7 5 5 7 9 10 8 8 10 15 18 19 20 21 21 22 22 23 23 23 23 23 23 24
9 7 8 7 5 7 5 4 6 7 8 9 9 10 10 8 7 9 14 17 18 20 20 21 22 22 23 23 23 23 23 23 23
7 7 6 5 5 6 6 6 5 6 7 7 8 9 12 12 7 6 12 14 17 18 18 19 21 21 22 22 22 22 23 22 22
6 7 6 6 6 6 6 6 6 5 6 6 8 8 8 11 11 8 8 13 15 17 17 17 18 19 19 19 20 20 20 21 21
8 7 7 7 7 9 7 7 6 6 5 6 6 6 9 7 10 9 7 8 13 14 14 15 15 16 17 17 18 18 18 19 19
8 7 7 7 6 6 6 5 5 5 5 5 5 5 5 7 8 5 5 5 7 9 12 12 12 13 14 15 15 15 16 16 17
8 7 7 8 6 6 5 5 5 5 5 5 5 5 4 5 6 7 5 4 3 6 7 9 9 10 11 12 12 12 13 13 13
8 6 7 8 6 5 5 7 5 5 5 4 5 4 3 2 3 6 5 5 4 3 3 6 6 8 9 10 10 11 11 12 12
8 6 8 7 6 7 7 5 5 4 4 4 3 2 4 6 5 3 4 6 5 4 3 2 4 6 10 10 9 10 10 11 12
9 6 5 5 5 7 6 6 4 3 3 4 5 4 4 4 4 4 4 5 4 4 4 4 3 2 4 4 6 8 9 10 11
9 9 5 5 4 4 4 4 4 2 2 4 2 2 3 5 4 6 5 6 4 5 4 4 3 2 3 3 7 7 7 8 9
11 11 8 8 6 5 4 3 1 3 2 2 5 6 5 3 3 5 6 5 5 5 3 3 3 4 1 3 5 3 5 7 8
8 11 10 7 5 3 6 4 2 2 3 1 1 3 4 6 5 4 5 3 3 3 3 5 3 4 1 2 6 3 3 5 7
Wind_Direction
132 118 116 107 101 94 88 84 79 72 67 63 45 49 54 38 59 58 56 56 61 65 68 69 67 63 60 59 57 56 58 56 55
135 120 119 113 105 96 92 86 83 80 74 65 51 45 79 61 52 56 55 57 63 64 67 66 67 70 64 61 61 58 56 56 56
126 120 120 113 100 98 94 92 86 79 77 70 46 17 21 98 86 62 57 55 60 61 63 65 66 66 67 66 62 60 58 56 55
123 115 118 109 105 99 98 96 93 88 81 80 62 29 44 63 65 69 58 60 62 62 60 64 64 62 62 61 63 65 61 58 55
122 114 118 110 105 100 100 99 95 94 89 97 102 101 89 81 71 66 57 65 67 66 62 61 62 62 63 62 61 60 60 61 57
145 100 116 107 104 103 104 104 106 100 101 133 248 265 81 76 74 74 69 74 72 69 66 64 61 59 58 58 58 59 58 57 56
119 109 116 109 108 108 111 125 145 141 125 131 234 90 88 79 79 76 75 78 78 75 73 72 70 67 63 58 55 53 52 52 51
127 136 141 128 145 126 139 175 184 113 98 98 87 92 88 84 79 78 82 81 79 76 75 73 71 70 67 65 63 59 56 51 50
146 161 160 148 155 142 152 114 119 124 131 120 112 99 99 97 92 75 78 82 81 81 77 74 72 70 68 64 61 59 56 55 54
148 148 147 148 137 151 128 143 131 123 102 102 105 102 103 98 93 83 72 85 85 80 77 76 74 70 67 65 63 60 56 53 50
162 154 147 140 165 144 154 141 117 116 110 95 88 95 92 110 118 108 69 60 81 81 79 76 76 74 72 69 65 62 58 55 53
162 164 152 163 162 159 151 134 147 111 114 123 107 106 107 105 117 124 117 91 53 67 72 72 71 69 68 65 65 62 60 55 49
159 164 162 160 162 154 148 142 143 142 134 135 115 121 123 120 113 116 119 127 114 71 60 63 66 66 63 68 62 57 54 51 47
164 165 156 161 152 161 160 166 160 159 157 136 140 140 137 131 132 127 114 86 95 127 105 88 66 61 62 61 60 54 47 43 39
163 161 163 156 165 165 171 169 173 169 163 156 149 144 144 144 193 147 167 132 151 129 134 166 98 81 70 60 56 49 41 32 23
162 165 169 157 172 170 184 172 182 178 175 152 154 176 199 189 193 187 203 150 178 180 175 204 148 127 101 68 54 39 24 12 2
153 143 155 154 178 176 198 162 167 178 208 206 194 193 187 236 219 204 220 207 181 209 211 181 134 76 88 94 70 40 17 5 354
140 154 166 184 185 172 190 158 207 155 228 278 303 247 257 162 170 214 216 224 191 217 200 201 168 150 92 181 112 46 10 353 346
127 113 80 47 41 21 40 26 70 24 205 227 251 276 293 308 171 196 208 217 228 198 209 246 187 223 185 135 137 86 1 341 337
134 121 106 95 89 57 41 358 267 227 284 191 318 280 288 285 284 278 191 177 229 262 221 205 248 256 209 290 99 77 336 320 320